Location: Grossmotten
(48.5500°N, 15.3833°E)
Time: 21:48:39
(UTC+00:00)

COSMOS 2455 - Pass Details

Date: 15 November 2019
Orbit: 902 x 908 km, 67.1° (Epoch: 14 December)

Event Time Altitude Azimuth Distance (km) Brightness Sun altitude
Exits shadow 02:48:19 25° 5° (N) 1,743 4.4 -32.5°
Maximum altitude 02:50:19 31° 38° (NE) 1,550 4.3 -32.2°
Drops below altitude 10° 02:55:35 10° 99° (E) 2,591 6.0 -31.3°
Sets 02:58:24 0° 110° (ESE) 3,528 6.8 -30.9°
